Whitefield, NH

5:17 AM EST on January 16, 2018 (GMT -0500)
Mount Washington Regional

Weather History for KHIE - June, 2014

Change the Weather History Date:

Monday, June 16, 2014

  Actual Average Record
Temperature  
Mean Temperature 56 °F -  
Max Temperature 78 °F 72 °F 91 °F (2001)
Min Temperature 37 °F 44 °F 30 °F (1999)
Degree Days  
Heating Degree Days 9    
Growing Degree Days 6 (Base 50)    
Moisture  
Dew Point 45 °F    
Average Humidity 70    
Maximum Humidity 96    
Minimum Humidity 32    
Precipitation  
Precipitation 0.00 in - - ()
Sea Level Pressure  
Sea Level Pressure 30.12 in    
Wind  
Wind Speed 1 mph (NW)    
Max Wind Speed 7 mph    
Max Gust Speed -    
Visibility 10 miles    
Events      
Averages and records for this station are not official NWS values.
T = Trace of Precipitation, MM = Missing Value Source: NWS Daily Summary

Daily Weather History Graph

Daily Weather History Graph

Search for Another Location

Airport or City:

Trip Planner

Search our weather history database for the weather conditions in past years. The results will help you decide how hot, cold, wet, or windy it might be!

Date:

Astronomy

Jun. 16, 2014 Rise Set
Actual Time 5:01 AM EDT 8:32 PM EDT
Civil Twilight 4:24 AM EDT 9:09 PM EDT
Nautical Twilight 3:36 AM EDT 9:57 PM EDT
Astronomical Twilight 2:33 AM EDT 11:00 PM EDT
Moon 11:12 PM EDT 9:09 AM EDT
Length of Visible Light 16h 44m
Length of Day
15h 31m
Waning Gibbous, 83% of the Moon is Illuminated
Jun 16
Waning Gibbous
Jun 19
Last Quarter
Jun 27
New
Jul 5
First Quarter
Jul 12
Full

Hourly Weather History & Observations

Time (EDT) Temp. Dew Point Humidity Pressure Visibility Wind Dir Wind Speed Gust Speed Precip Events Conditions
12:52 AM 44.1 °F 41.0 °F 89% 30.13 in 10.0 mi Calm Calm - N/A   Clear
1:52 AM 43.0 °F 39.9 °F 89% 30.13 in 10.0 mi Calm Calm - N/A   Clear
2:52 AM 39.9 °F 37.9 °F 93% 30.14 in 9.0 mi Calm Calm - N/A   Clear
3:23 AM 41.0 °F 37.9 °F 89% 30.13 in 10.0 mi Calm Calm - N/A   Partly Cloudy
3:52 AM 39.9 °F 37.0 °F 89% 30.15 in 10.0 mi Calm Calm - N/A   Clear
4:52 AM 37.9 °F 36.0 °F 93% 30.17 in 10.0 mi Calm Calm - N/A   Clear
5:24 AM 37.9 °F 36.0 °F 93% 30.16 in 10.0 mi Calm Calm - N/A   Scattered Clouds
5:32 AM 37.9 °F 36.0 °F 93% 30.16 in 10.0 mi Calm Calm - N/A   Mostly Cloudy
5:52 AM 39.0 °F 37.9 °F 96% 30.18 in 3.0 mi Calm Calm - N/A   Mostly Cloudy
6:08 AM 41.0 °F 39.0 °F 93% 30.17 in 5.0 mi Calm Calm - N/A   Partly Cloudy
6:52 AM 46.0 °F 43.0 °F 89% 30.18 in 10.0 mi Calm Calm - N/A   Clear
7:52 AM 54.0 °F 46.9 °F 77% 30.18 in 10.0 mi Calm Calm - N/A   Clear
8:52 AM 61.0 °F 48.0 °F 62% 30.18 in 10.0 mi Calm Calm - N/A   Clear
9:52 AM 64.9 °F 45.0 °F 48% 30.17 in 10.0 mi Calm Calm - N/A   Clear
10:52 AM 69.1 °F 46.0 °F 44% 30.17 in 10.0 mi Variable 4.6 mph - N/A   Clear
11:52 AM 72.0 °F 46.0 °F 40% 30.14 in 10.0 mi Calm Calm - N/A   Clear
12:52 PM 73.0 °F 42.1 °F 33% 30.12 in 10.0 mi North 5.8 mph - N/A   Clear
1:52 PM 75.0 °F 45.0 °F 34% 30.11 in 10.0 mi Variable 3.5 mph - N/A   Clear
2:52 PM 75.9 °F 46.9 °F 36% 30.09 in 10.0 mi WNW 6.9 mph - N/A   Clear
3:52 PM 75.0 °F 46.0 °F 36% 30.07 in 10.0 mi WNW 5.8 mph - N/A   Clear
5:52 PM 75.0 °F 43.0 °F 32% 30.05 in 10.0 mi Calm Calm - N/A   Clear
6:52 PM 72.0 °F 53.1 °F 51% 30.04 in 10.0 mi Calm Calm - N/A   Clear
7:52 PM 68.0 °F 57.0 °F 68% 30.04 in 10.0 mi Calm Calm - N/A   Clear
8:52 PM 64.0 °F 57.0 °F 78% 30.05 in 10.0 mi Calm Calm - N/A   Scattered Clouds
9:52 PM 63.0 °F 54.0 °F 72% 30.07 in 10.0 mi Calm Calm - N/A   Overcast
10:52 PM 61.0 °F 55.9 °F 83% 30.06 in 10.0 mi ESE 3.5 mph - 0.00 in   Overcast
11:52 PM 61.0 °F 55.0 °F 81% 30.05 in 10.0 mi Calm Calm - N/A   Overcast